AFR602 TFFF-TFFR

Flight info

Callsign AFR602
Flight time 0h 32m
Altitude 14000
Route DOM2R DOM DOM1A
Aircraft A320/M-SDE2E3FGIJ1RWY/HB1

Departure

Time 2026-04-22 21:33
Airport Martinique Aimé Césaire International Airport (TFFF)

Arrival

Time 2026-04-22 22:05
Airport Maryse Condé International Airport (TFFR)
Time Latitude Longitude Altitude Speed Heading
2026-04-22 20:59 14.59456 -61.00041 19 ft 0 kts 22°
2026-04-22 21:24 14.59437 -61.00049 17 ft 4 kts 26°
2026-04-22 21:24 14.59413 -61.00058 21 ft 3 kts
2026-04-22 21:24 14.59388 -61.00057 20 ft 4 kts 334°
2026-04-22 21:24 14.59369 -61.00040 21 ft 4 kts 294°
2026-04-22 21:25 14.59361 -61.00014 19 ft 4 kts 275°
2026-04-22 21:25 14.59361 -60.99986 19 ft 4 kts 265°
2026-04-22 21:25 14.59363 -60.99965 19 ft 0 kts 259°
2026-04-22 21:27 14.59363 -60.99968 22 ft 3 kts 259°
2026-04-22 21:27 14.59344 -61.00029 21 ft 11 kts 225°
2026-04-22 21:28 14.59277 -61.00037 20 ft 9 kts 172°
2026-04-22 21:28 14.59267 -61.00036 20 ft 0 kts 172°
2026-04-22 21:29 14.59266 -61.00036 20 ft 2 kts 172°
2026-04-22 21:29 14.59202 -61.00026 19 ft 16 kts 172°
2026-04-22 21:29 14.59154 -61.00082 18 ft 16 kts 270°
2026-04-22 21:30 14.59119 -61.00236 16 ft 29 kts 260°
2026-04-22 21:30 14.59077 -61.00478 15 ft 40 kts 260°
2026-04-22 21:30 14.59027 -61.00784 22 ft 46 kts 260°
2026-04-22 21:30 14.58968 -61.01133 24 ft 52 kts 260°
2026-04-22 21:31 14.58906 -61.01511 22 ft 54 kts 260°
2026-04-22 21:31 14.58893 -61.01770 19 ft 26 kts 294°
2026-04-22 21:31 14.58887 -61.01826 16 ft 2 kts 176°
2026-04-22 21:31 14.58858 -61.01773 17 ft 11 kts 86°
2026-04-22 21:32 14.58860 -61.01759 17 ft 3 kts 84°
2026-04-22 21:32 14.58912 -61.01450 22 ft 82 kts 80°
2026-04-22 21:32 14.59050 -61.00643 20 ft 144 kts 80°
2026-04-22 21:32 14.59252 -60.99502 278 ft 173 kts 79°
2026-04-22 21:33 14.59489 -60.98269 975 ft 177 kts 78°
2026-04-22 21:33 14.59733 -60.97000 1701 ft 181 kts 78°
2026-04-22 21:33 14.59962 -60.95697 2283 ft 194 kts 79°
2026-04-22 21:33 14.60199 -60.94244 2656 ft 216 kts 79°
2026-04-22 21:34 14.60458 -60.92646 3100 ft 238 kts 79°
2026-04-22 21:34 14.60745 -60.90880 3640 ft 259 kts 79°
2026-04-22 21:34 14.61301 -60.89085 4469 ft 268 kts 56°
2026-04-22 21:34 14.62715 -60.87843 5336 ft 274 kts 22°
2026-04-22 21:35 14.64599 -60.87606 6228 ft 278 kts 351°
2026-04-22 21:35 14.66451 -60.88118 7099 ft 281 kts 339°
2026-04-22 21:35 14.68293 -60.88860 7722 ft 286 kts 337°
2026-04-22 21:35 14.70150 -60.89601 7933 ft 286 kts 339°
2026-04-22 21:36 14.72038 -60.90259 7999 ft 286 kts 342°
2026-04-22 21:36 14.73951 -60.90827 8010 ft 286 kts 344°
2026-04-22 21:36 14.75880 -60.91324 8013 ft 286 kts 346°
2026-04-22 21:36 14.77821 -60.91777 8012 ft 286 kts 347°
2026-04-22 21:37 14.79765 -60.92208 8012 ft 286 kts 347°
2026-04-22 21:37 14.81710 -60.92628 8015 ft 285 kts 347°
2026-04-22 21:37 14.83654 -60.93047 8015 ft 285 kts 347°
2026-04-22 21:37 14.85597 -60.93469 8051 ft 288 kts 347°
2026-04-22 21:38 14.87581 -60.93906 8833 ft 291 kts 347°
2026-04-22 21:38 14.89562 -60.94345 9803 ft 292 kts 347°
2026-04-22 21:38 14.91579 -60.94793 10390 ft 306 kts 347°
2026-04-22 21:38 14.93716 -60.95349 10673 ft 327 kts 339°
2026-04-22 21:39 14.95801 -60.96352 11246 ft 335 kts 330°
2026-04-22 21:39 14.97864 -60.97511 11943 ft 340 kts 330°
2026-04-22 21:39 14.99957 -60.98679 12657 ft 344 kts 330°
2026-04-22 21:39 15.02076 -60.99860 13363 ft 348 kts 330°
2026-04-22 21:40 15.04221 -61.01059 13816 ft 352 kts 330°
2026-04-22 21:40 15.06374 -61.02264 13927 ft 351 kts 330°
2026-04-22 21:40 15.08477 -61.03440 13962 ft 339 kts 330°
2026-04-22 21:40 15.10542 -61.04592 13968 ft 336 kts 330°
2026-04-22 21:41 15.12572 -61.05726 13967 ft 335 kts 330°
2026-04-22 21:41 15.14621 -61.06871 13966 ft 335 kts 330°
2026-04-22 21:41 15.16674 -61.08016 13966 ft 335 kts 330°
2026-04-22 21:41 15.18726 -61.09162 13966 ft 335 kts 330°
2026-04-22 21:42 15.20774 -61.10305 13965 ft 335 kts 330°
2026-04-22 21:42 15.22824 -61.11452 13966 ft 334 kts 330°
2026-04-22 21:42 15.24866 -61.12598 13968 ft 334 kts 330°
2026-04-22 21:42 15.26909 -61.13746 13969 ft 334 kts 330°
2026-04-22 21:43 15.28954 -61.14895 13970 ft 334 kts 330°
2026-04-22 21:43 15.30999 -61.16041 13969 ft 335 kts 330°
2026-04-22 21:43 15.33047 -61.17188 13975 ft 335 kts 330°
2026-04-22 21:43 15.35100 -61.18339 13976 ft 335 kts 330°
2026-04-22 21:44 15.37146 -61.19487 13978 ft 335 kts 330°
2026-04-22 21:44 15.39198 -61.20636 13982 ft 335 kts 330°
2026-04-22 21:44 15.41248 -61.21782 13982 ft 335 kts 331°
2026-04-22 21:44 15.43295 -61.22928 13983 ft 335 kts 330°
2026-04-22 21:45 15.45339 -61.24075 13986 ft 334 kts 330°
2026-04-22 21:45 15.47386 -61.25227 13986 ft 334 kts 330°
2026-04-22 21:45 15.49429 -61.26378 13986 ft 334 kts 330°
2026-04-22 21:45 15.51469 -61.27526 13987 ft 334 kts 330°
2026-04-22 21:46 15.53511 -61.28682 13988 ft 334 kts 328°
2026-04-22 21:46 15.55367 -61.30112 13989 ft 332 kts 316°
2026-04-22 21:46 15.56882 -61.31914 13988 ft 332 kts 308°
2026-04-22 21:46 15.58305 -61.33796 13990 ft 332 kts 308°
2026-04-22 21:47 15.59736 -61.35683 13990 ft 332 kts 308°
2026-04-22 21:47 15.61166 -61.37564 13985 ft 332 kts 308°
2026-04-22 21:47 15.62595 -61.39444 13985 ft 332 kts 308°
2026-04-22 21:47 15.64004 -61.41301 13986 ft 332 kts 308°
2026-04-22 21:48 15.65451 -61.43207 13987 ft 332 kts 308°
2026-04-22 21:48 15.66859 -61.45062 13985 ft 332 kts 308°
2026-04-22 21:48 15.68287 -61.46947 13984 ft 332 kts 308°
2026-04-22 21:48 15.69714 -61.48828 13983 ft 332 kts 308°
2026-04-22 21:49 15.71142 -61.50714 13981 ft 332 kts 308°
2026-04-22 21:49 15.72570 -61.52602 13981 ft 332 kts 308°
2026-04-22 21:49 15.73996 -61.54489 13981 ft 332 kts 308°
2026-04-22 21:49 15.75422 -61.56380 13978 ft 332 kts 307°
2026-04-22 21:50 15.76845 -61.58268 13979 ft 333 kts 308°
2026-04-22 21:50 15.78273 -61.60158 13977 ft 333 kts 308°
2026-04-22 21:50 15.79702 -61.62043 13979 ft 333 kts 308°
2026-04-22 21:50 15.81134 -61.63932 13980 ft 333 kts 308°
2026-04-22 21:51 15.82562 -61.65819 13984 ft 333 kts 308°
2026-04-22 21:51 15.83990 -61.67709 13982 ft 333 kts 308°
2026-04-22 21:51 15.85419 -61.69599 13984 ft 333 kts 308°
2026-04-22 21:52 15.88273 -61.73380 13985 ft 333 kts 308°
2026-04-22 21:52 15.89701 -61.75269 13983 ft 332 kts 308°
2026-04-22 21:52 15.91125 -61.77157 13987 ft 332 kts 307°
2026-04-22 21:52 15.92552 -61.79052 13988 ft 332 kts 307°
2026-04-22 21:53 15.93964 -61.80923 13814 ft 326 kts 308°
2026-04-22 21:53 15.95346 -61.82755 13534 ft 320 kts 308°
2026-04-22 21:53 15.96713 -61.84568 13144 ft 318 kts 308°
2026-04-22 21:53 15.98071 -61.86371 12749 ft 316 kts 308°
2026-04-22 21:54 15.99423 -61.88164 12351 ft 314 kts 308°
2026-04-22 21:54 16.00769 -61.89947 11948 ft 313 kts 308°
2026-04-22 21:54 16.02289 -61.91541 11642 ft 308 kts 323°
2026-04-22 21:54 16.04110 -61.92586 11411 ft 300 kts 339°
2026-04-22 21:55 16.06124 -61.93062 10772 ft 298 kts 356°
2026-04-22 21:55 16.08180 -61.93070 10191 ft 293 kts 359°
2026-04-22 21:55 16.10194 -61.93058 9672 ft 286 kts 359°
2026-04-22 21:55 16.12157 -61.93052 9179 ft 277 kts 359°
2026-04-22 21:56 16.14054 -61.93049 8730 ft 268 kts 359°
2026-04-22 21:56 16.15886 -61.93049 8300 ft 261 kts 360°
2026-04-22 21:56 16.17702 -61.93049 7846 ft 260 kts
2026-04-22 21:56 16.19509 -61.93050 7378 ft 259 kts
2026-04-22 21:57 16.21307 -61.93052 6900 ft 258 kts
2026-04-22 21:57 16.23101 -61.93052 6400 ft 260 kts
2026-04-22 21:57 16.24932 -61.92885 5694 ft 269 kts 15°
2026-04-22 21:57 16.26637 -61.92128 5004 ft 267 kts 34°
2026-04-22 21:58 16.27960 -61.90857 4666 ft 250 kts 53°
2026-04-22 21:58 16.28779 -61.89365 4588 ft 226 kts 68°
2026-04-22 21:58 16.29193 -61.87862 4540 ft 208 kts 77°
2026-04-22 21:58 16.29479 -61.86423 4493 ft 200 kts 78°
2026-04-22 21:59 16.29742 -61.85006 4448 ft 199 kts 78°
2026-04-22 21:59 16.30003 -61.83589 4401 ft 199 kts 78°
2026-04-22 21:59 16.30264 -61.82174 4357 ft 199 kts 78°
2026-04-22 21:59 16.30526 -61.80762 4356 ft 198 kts 78°
2026-04-22 22:00 16.30788 -61.79358 4303 ft 197 kts 78°
2026-04-22 22:00 16.30980 -61.78274 4265 ft 198 kts 82°
2026-04-22 22:00 16.30886 -61.76844 4221 ft 199 kts 98°
2026-04-22 22:00 16.30635 -61.75424 4086 ft 200 kts 99°
2026-04-22 22:01 16.30373 -61.74006 3839 ft 199 kts 99°
2026-04-22 22:01 16.30113 -61.72600 3575 ft 197 kts 99°
2026-04-22 22:01 16.29854 -61.71197 3304 ft 197 kts 98°
2026-04-22 22:01 16.29597 -61.69801 3038 ft 195 kts 98°
2026-04-22 22:02 16.29341 -61.68408 2770 ft 196 kts 98°
2026-04-22 22:02 16.29086 -61.67028 2499 ft 193 kts 98°
2026-04-22 22:02 16.28836 -61.65673 2240 ft 187 kts 98°
2026-04-22 22:02 16.28596 -61.64371 1973 ft 180 kts 98°
2026-04-22 22:03 16.28364 -61.63112 1735 ft 175 kts 99°
2026-04-22 22:03 16.28134 -61.61868 1488 ft 174 kts 98°
2026-04-22 22:03 16.27908 -61.60641 1252 ft 171 kts 98°
2026-04-22 22:03 16.27696 -61.59498 1024 ft 150 kts 98°
2026-04-22 22:04 16.27508 -61.58476 840 ft 138 kts 97°
2026-04-22 22:04 16.27335 -61.57513 610 ft 133 kts 97°
2026-04-22 22:04 16.27156 -61.56572 411 ft 132 kts 99°
2026-04-22 22:04 16.26981 -61.55629 271 ft 133 kts 98°
2026-04-22 22:05 16.26808 -61.54681 81 ft 132 kts 97°
2026-04-22 22:05 16.26644 -61.53763 25 ft 120 kts 97°
2026-04-22 22:05 16.26508 -61.53054 26 ft 76 kts 101°
2026-04-22 22:05 16.26438 -61.52674 28 ft 39 kts 100°
2026-04-22 22:06 16.26390 -61.52408 34 ft 32 kts 101°
2026-04-22 22:06 16.26389 -61.52240 39 ft 17 kts 41°
2026-04-22 22:06 16.26502 -61.52215 37 ft 18 kts 13°
2026-04-22 22:06 16.26651 -61.52182 29 ft 23 kts 11°
2026-04-22 22:07 16.26741 -61.52271 24 ft 21 kts 276°
2026-04-22 22:07 16.26767 -61.52418 26 ft 21 kts 281°
2026-04-22 22:07 16.26794 -61.52560 26 ft 18 kts 281°
2026-04-22 22:07 16.26834 -61.52601 23 ft 5 kts 358°
2026-04-22 22:08 16.26866 -61.52607 23 ft 4 kts 349°
2026-04-22 22:08 16.26893 -61.52612 23 ft 3 kts 348°
2026-04-22 22:08 16.26902 -61.52614 23 ft 0 kts 348°